{"data":{"norad_id":51726,"epoch":"2026-09-20T04:55:01.966368Z","epoch_age_seconds":73946,"freshness":"FRESH","line1":"1 51726U 22016N   26263.20488387  .00011890  00000+0  65367-3 0  9999","line2":"2 51726  53.2145 162.1686 0002162  98.6769 261.4471 15.14497257252985","mean_motion":15.14497257,"eccentricity":0.0002162,"inclination_deg":53.2145,"raan_deg":162.1686,"arg_perigee_deg":98.6769,"mean_anomaly_deg":261.4471,"bstar":0.00065367,"rev_number":25298,"period_min":95.081056987349,"perigee_km":521.01334810844,"apogee_km":523.99718582468,"semimajor_km":6900.6422669666,"source":"CELESTRAK","updated_at":"2026-09-20T09:00:39.925224Z"}}